Location: Eppenbrunn
(49.1158°N, 7.5601°E)
Time: 16:01:45
(UTC+00:00)

IGS 5A - Pass Details

Date: 20 August 2020
Orbit: 583 x 588 km, 97.6° (Epoch: 26 September)

Event Time Altitude Azimuth Distance (km) Brightness Sun altitude
Exits shadow 21:04:29 24° 211° (SSW) 1,228 4.9 -20.6°
Maximum altitude 21:06:25 38° 263° (W) 901 4.6 -20.8°
Drops below altitude 10° 21:10:20 10° 332° (NNW) 1,926 7.2 -21.2°
Sets 21:12:37 0° 341° (NNW) 2,831 8.2 -21.5°
